CAPE
0 0 0 0 0 0 0 0 0 0 0 0 0 0 0 0 0 0 0 0 0 0 7 596 881 643 587 535 398 0 174 325 64 1 1 22 0 0 0 1 7 0 0 29 50
0 0 0 0 0 0 0 0 0 0 0 0 0 0 0 0 0 0 0 0 0 0 258 872 923 1165 218 592 142 0 243 169 9 0 2 28 0 0 0 0 14 0 15 0 42
0 0 0 0 0 0 0 0 0 0 0 0 0 0 0 0 0 0 0 0 0 0 342 595 736 774 239 390 492 130 517 419 123 0 15 26 8 14 21 14 1 0 0 3 31
0 0 0 0 0 0 0 0 0 0 0 0 0 0 0 0 0 0 0 0 0 27 462 586 342 281 156 415 625 582 572 325 520 314 262 67 26 0 0 0 0 0 0 0 8
0 0 0 0 0 0 0 0 0 0 0 0 0 0 0 0 0 0 0 0 0 65 199 99 65 6 102 250 434 499 514 480 502 695 446 459 357 10 0 0 0 0 0 0 4
0 0 0 0 0 0 0 0 0 0 0 0 0 0 0 0 0 0 0 0 0 76 8 0 0 0 17 214 512 668 600 694 744 711 238 155 621 239 0 0 0 0 0 0 2
0 0 0 0 0 0 0 0 0 0 0 0 0 0 0 0 0 0 0 0 0 0 0 0 0 0 0 256 166 652 675 412 785 637 516 561 542 445 15 0 0 0 0 0 0
0 0 0 0 0 0 0 0 0 0 0 0 0 0 0 0 0 0 0 0 0 0 0 0 0 0 0 110 287 803 212 242 329 620 259 49 422 579 131 8 0 0 0 0 0
0 0 0 0 0 0 0 0 0 0 0 0 0 0 0 0 0 0 0 0 0 0 0 0 0 0 2 2 43 159 101 411 434 450 602 482 318 574 288 131 11 0 0 1 3
0 0 0 0 0 0 0 0 0 0 0 0 0 0 0 0 0 0 0 0 0 0 0 0 0 0 1 39 18 1 29 0 191 1 0 52 306 553 521 362 133 28 0 0 0
0 0 0 0 0 0 0 0 0 0 0 0 0 0 0 0 0 0 0 0 0 0 0 0 0 1 14 2 0 0 5 2 0 0 0 0 0 216 429 447 435 201 39 0 0
0 0 0 0 0 0 0 0 0 0 0 0 0 0 0 0 0 0 0 0 0 0 0 0 0 0 0 0 0 0 0 12 0 0 0 0 0 21 276 361 368 467 227 47 2
0 0 0 0 0 0 0 0 0 0 0 0 0 0 0 0 0 0 0 0 0 0 0 0 0 0 0 0 0 0 0 0 0 0 0 0 0 0 351 307 368 419 452 278 21
0 0 0 0 0 0 0 0 0 0 0 0 0 0 0 0 0 0 0 0 0 0 0 0 0 0 0 0 0 0 0 0 0 0 0 0 5 17 189 347 275 365 416 393 294
0 0 0 0 0 0 0 0 0 0 0 0 0 0 0 0 0 0 0 0 0 0 0 0 0 0 0 0 0 0 0 0 0 0 0 0 0 0 160 403 405 300 401 389 336
0 0 0 0 0 0 0 0 0 0 0 0 0 0 0 0 0 0 0 0 0 0 0 0 0 0 0 0 0 0 0 0 0 0 0 0 0 0 67 180 380 291 235 154 60
0 0 0 0 0 0 0 0 0 0 0 0 0 0 0 0 0 0 0 0 0 0 0 0 0 0 0 0 0 0 0 0 0 0 0 0 0 20 70 38 34 143 174 50 1
0 0 0 0 0 0 0 0 0 0 0 0 0 0 0 0 0 0 0 0 0 0 0 0 0 0 0 0 0 0 0 0 0 0 0 0 0 85 2 1 0 0 0 0 0
0 0 0 0 0 0 0 0 0 0 0 0 0 0 0 0 0 0 0 0 0 0 0 0 0 0 0 0 0 0 0 0 0 0 0 0 39 35 9 0 0 0 0 0 0
0 0 0 0 0 0 0 0 0 0 0 0 0 0 0 0 0 0 0 0 0 0 0 0 0 0 0 0 0 0 0 0 0 0 0 0 0 44 22 4 0 0 0 0 0
0 0 0 0 0 0 0 0 0 0 0 0 0 0 0 0 0 0 0 0 0 0 0 0 0 0 0 0 0 0 0 0 0 0 0 0 33 77 71 0 0 0 0 0 0
0 0 0 0 0 0 0 0 0 2 0 0 0 0 0 0 0 0 0 0 0 0 0 0 0 0 0 0 0 0 0 0 0 0 0 0 0 26 1 0 0 0 0 0 0
0 0 0 0 0 0 0 0 1 1 0 0 0 0 0 0 0 0 0 0 0 0 0 0 0 0 0 0 0 0 0 0 0 0 0 0 0 13 0 0 0 0 0 0 0
0 4 0 0 0 0 0 0 4 0 0 0 0 0 0 0 0 0 0 0 0 0 0 0 0 0 0 0 0 0 0 0 0 0 0 0 0 1 0 0 0 0 0 0 0
0 16 0 0 0 0 0 0 0 0 0 0 0 0 0 0 0 0 0 0 0 0 0 0 0 0 0 0 0 0 0 0 0 0 0 0 0 0 0 0 0 0 0 0 0
117 83 6 3 0 8 0 0 0 0 0 0 0 0 0 0 1 5 0 0 0 0 0 0 0 0 0 0 0 0 0 0 0 0 0 0 0 0 0 0 0 0 0 0 0
73 3 4 0 11 5 19 0 0 0 0 0 0 2 0 1 0 0 0 0 0 0 0 0 0 0 0 0 0 0 0 0 0 0 0 0 0 0 0 0 0 0 0 0 0
CIN
0 0 0 0 0 0 0 0 0 0 0 0 0 0 0 0 0 0 0 0 0 0 -95 -111 -11 -37 -46 -21 -22 0 -36 -12 -21 -1 -1 -3 0 0 0 -1 -2 0 0 -28 -3
0 0 0 0 0 0 0 0 0 0 0 0 0 0 0 0 0 0 0 0 0 0 -183 -14 -6 -10 -3 -3 -158 0 -61 -16 -3 0 -2 -3 0 0 0 0 -2 0 -4 0 -2
0 0 0 0 0 0 0 0 0 0 0 0 0 0 0 0 0 0 0 0 0 0 -193 -36 -22 -7 -5 -19 -98 -196 -6 -3 -8 0 -3 -3 -4 -29 -14 -5 -2 0 0 -2 -3
0 0 0 0 0 0 0 0 0 0 0 0 0 0 0 0 0 0 0 0 0 -293 -148 -20 -7 -23 -18 -13 -18 -3 -2 -10 -2 -8 -3 -9 -2 -1 0 0 0 0 0 0 -3
0 0 0 0 0 0 0 0 0 0 0 0 0 0 0 0 0 0 0 0 0 -300 -120 -64 -137 -143 -84 -4 -24 -8 -2 -3 -1 -10 -35 -11 -4 -3 0 0 0 0 0 0 -2
0 0 0 0 0 0 0 0 0 0 0 0 0 0 0 0 0 0 0 0 0 -207 -282 0 -1 0 -12 -37 -6 -8 -3 -10 -8 -2 -50 -44 -8 -5 0 0 0 0 0 0 -1
0 0 0 0 0 0 0 0 0 0 0 0 0 0 0 0 0 0 0 0 0 -23 0 0 0 0 -1 -30 -59 -31 -4 -34 -13 -24 -20 -26 -18 -12 -66 0 0 0 0 0 0
0 0 0 0 0 0 0 0 0 0 0 0 0 0 0 0 0 0 0 0 0 0 0 0 0 0 0 -65 -21 -16 -83 -88 -47 -22 -90 -85 -31 -46 -26 -28 0 0 0 -1 -1
0 0 0 0 0 0 0 0 0 0 0 0 0 0 0 0 0 0 0 0 0 0 0 0 0 0 -6 -2 -47 -70 -39 -9 -28 -8 -19 -34 -36 -4 -16 -30 -49 0 -1 -2 -3
0 0 0 0 0 0 0 0 0 0 0 0 0 0 0 0 0 0 0 0 0 0 0 0 0 0 -1 -3 -22 -11 -4 0 -17 -2 0 -102 -9 -2 -2 -3 -27 -114 0 0 0
0 0 0 0 0 0 0 0 0 0 0 0 0 0 0 0 0 0 0 0 0 0 0 0 0 -1 -7 -12 -1 -1 -2 -5 0 0 0 0 0 -11 -19 -12 -2 -33 -156 0 0
0 0 0 0 0 0 0 0 0 0 0 0 0 0 0 0 0 0 0 0 0 0 0 0 0 0 0 0 0 0 -1 -2 0 0 0 0 0 -3 -23 -28 -2 -3 -28 -162 -301
0 0 0 0 0 0 0 0 0 0 0 0 0 0 0 0 0 0 0 0 0 0 0 0 0 0 0 0 0 0 0 0 0 0 0 0 0 0 -15 -17 -8 -3 -5 -9 -171
0 0 0 0 0 0 0 0 0 0 0 0 0 0 0 0 0 0 0 0 0 0 0 0 0 0 0 0 0 0 0 0 0 0 0 0 -5 -93 -20 -6 -4 -9 -10 -33 -28
0 0 0 0 0 0 0 0 0 0 0 0 0 0 0 0 0 0 0 0 0 0 0 0 0 0 0 0 0 0 0 0 0 0 0 0 0 0 -37 -8 -11 -14 -17 -14 -17
0 0 0 0 0 0 0 0 0 0 0 0 0 0 0 0 0 0 0 0 0 0 0 0 0 0 0 0 0 0 0 0 0 0 0 0 0 0 -6 -9 -21 -60 -128 -85 -355
0 0 0 0 0 0 0 0 0 0 0 0 0 0 0 0 0 0 0 0 0 0 0 0 0 0 0 0 0 0 0 0 0 0 0 0 0 -9 -26 -29 -12 -54 -105 -131 -146
0 0 0 0 0 0 0 0 0 0 0 0 0 0 0 0 0 0 0 0 0 0 0 0 0 0 0 0 0 0 0 0 0 0 0 0 0 -36 -5 -4 0 0 0 0 0
0 0 0 0 0 0 0 0 0 0 0 0 0 0 0 0 0 0 0 0 0 0 0 0 0 0 0 0 0 0 0 0 0 0 0 0 -40 -66 -85 0 0 0 0 0 0
0 0 0 0 0 0 0 0 0 0 0 0 0 0 0 0 0 0 0 0 0 0 0 0 0 0 0 0 0 0 0 0 0 0 0 0 0 -10 -77 -60 0 0 0 0 0
0 0 0 0 0 0 0 0 0 0 0 0 0 0 0 0 0 0 0 0 0 0 0 0 0 0 0 0 0 0 0 0 0 0 0 0 -15 -78 -72 0 0 0 0 0 0
0 0 0 0 0 0 0 0 0 -6 0 0 0 0 0 0 0 0 0 0 0 0 0 0 0 0 0 0 0 0 0 0 0 0 0 0 0 -56 -125 0 0 0 0 0 0
0 0 0 0 0 0 0 0 -2 -1 0 0 0 0 0 0 0 0 0 0 0 0 0 0 0 0 0 0 0 0 0 0 0 0 0 0 0 -40 0 0 0 0 0 0 0
0 -42 0 0 0 0 0 -2 -6 0 0 0 0 0 0 0 0 0 0 0 0 0 0 0 0 0 0 0 0 0 0 0 0 0 0 0 0 -23 0 0 0 0 0 0 0
0 -8 0 0 0 0 0 0 0 0 0 0 0 0 0 0 0 0 0 0 0 0 0 0 0 0 0 0 0 0 0 0 0 0 0 0 0 0 0 0 0 0 0 0 0
-57 -69 -175 -112 -18 -108 -2 0 0 0 0 0 0 0 0 0 -3 -4 0 0 0 0 0 0 0 0 0 0 0 0 0 0 0 0 0 0 0 0 0 0 0 0 0 0 0
-116 -103 -86 -2 -89 -69 -50 -29 0 0 0 -1 0 -5 -4 -9 0 0 0 0 0 0 0 0 0 0 0 0 0 0 0 0 0 0 0 0 0 0 0 0 0 0 0 0 0
Wind_Speed
22 23 23 23 24 23 23 23 23 22 20 19 19 19 18 17 16 15 15 8 16 20 18 16 15 12 15 15 12 6 9 18 19 29 28 28 28 25 26 26 18 21 28 31 32
22 23 23 23 23 23 23 23 23 23 21 20 19 20 19 18 17 18 17 11 19 21 17 16 14 9 10 14 16 8 17 25 26 28 26 24 27 27 25 25 24 25 26 27 28
22 22 23 23 23 23 23 23 23 23 22 20 19 19 19 18 17 6 20 12 21 20 17 15 12 12 11 13 23 21 20 23 24 26 26 26 21 26 17 24 23 24 24 27 25
22 23 23 23 23 22 22 22 23 23 22 21 20 20 19 18 14 12 14 20 23 19 16 15 13 11 13 21 7 20 21 24 23 24 24 20 21 19 23 22 23 25 25 25 24
22 23 23 23 23 23 23 23 23 23 23 21 20 19 18 19 13 9 13 7 22 19 15 14 11 11 14 7 17 17 20 21 22 22 9 12 7 22 22 23 25 27 26 25 24
23 23 23 23 23 23 24 24 23 23 22 21 20 18 18 19 11 11 13 12 22 20 16 16 15 13 12 10 3 18 19 17 19 17 21 15 15 17 21 22 23 25 25 25 24
24 24 24 23 23 24 24 23 21 20 20 20 18 16 19 17 10 13 11 16 21 21 21 17 17 17 16 15 10 15 19 18 14 16 15 13 15 19 20 20 21 22 23 23 23
24 24 24 24 23 24 23 22 21 20 19 18 16 16 15 13 17 8 18 19 21 23 21 21 21 20 18 14 13 14 16 14 15 15 17 20 19 20 20 21 21 21 20 20 20
25 24 24 24 23 23 22 21 20 19 18 16 14 14 14 11 12 11 11 21 17 22 22 23 22 23 23 22 16 11 16 14 15 14 15 8 14 18 20 22 21 20 20 18 18
26 25 24 23 23 23 22 19 17 18 14 14 23 20 10 11 8 12 17 21 20 23 23 22 22 23 25 19 17 12 17 14 13 12 11 14 12 15 19 20 17 17 17 17 16
27 26 25 24 23 22 19 16 14 13 12 20 12 18 9 9 12 16 13 16 22 22 22 23 23 20 22 13 11 19 19 16 12 14 13 17 14 9 11 13 15 15 13 14 16
27 27 26 25 25 24 20 17 20 20 19 17 19 17 15 12 12 16 14 17 14 18 15 21 17 24 14 14 19 23 23 23 12 13 11 14 22 3 8 9 11 11 12 13 12
28 27 27 26 26 22 17 26 21 20 20 14 14 15 14 15 15 11 16 20 23 20 22 18 16 16 16 21 23 23 25 27 22 15 12 18 14 20 5 6 7 6 9 11 13
29 28 26 26 20 22 21 17 17 17 22 13 15 15 14 16 17 15 19 21 18 22 21 19 14 19 18 21 20 21 20 22 22 26 27 24 22 10 1 3 2 1 6 10 10
31 29 27 22 23 18 17 16 16 15 21 6 9 9 12 10 9 14 16 19 22 19 18 15 18 18 19 21 17 19 24 22 24 26 28 25 22 21 1 9 4 3 2 2 11
32 30 28 16 17 25 22 17 14 16 21 10 10 15 12 15 14 13 12 17 17 18 18 21 18 19 21 21 20 24 28 25 19 19 26 21 19 22 9 14 2 7 7 17 20
34 32 27 25 11 21 18 15 15 19 9 13 13 8 9 12 12 12 12 12 13 15 15 17 19 14 18 21 16 18 21 27 23 17 22 15 13 13 6 5 7 8 10 13 11
36 32 22 20 26 21 18 11 16 18 18 13 11 10 11 9 14 14 15 15 18 20 16 17 16 14 12 17 19 19 21 21 24 22 22 14 11 7 6 6 6 7 11 14 15
35 21 19 19 18 23 18 11 11 26 16 13 12 14 10 8 16 13 16 13 11 16 19 19 15 14 17 19 20 18 18 26 24 27 24 17 8 5 4 4 6 9 12 16 19
27 24 23 12 9 17 21 23 22 30 21 10 13 12 10 13 14 12 12 15 16 18 20 20 21 14 12 19 20 21 27 23 19 22 23 25 21 23 5 4 7 11 14 19 22
19 18 7 9 13 20 23 25 29 22 16 17 18 15 21 14 12 14 16 12 15 17 20 24 20 18 20 25 22 16 20 19 24 26 28 27 16 15 5 5 10 15 18 21 24
21 19 9 10 18 23 28 31 29 14 22 25 23 25 18 19 13 19 16 15 13 19 21 20 23 27 27 18 19 24 30 29 29 26 26 28 31 8 8 9 13 17 20 24 26
18 18 15 15 23 24 28 36 27 20 20 21 19 20 16 15 15 17 12 14 16 20 20 22 20 26 23 20 16 23 25 26 27 31 34 32 22 9 13 17 18 22 26 27 28
18 18 15 20 26 28 29 31 21 24 19 19 18 14 14 16 12 16 14 16 17 17 19 21 22 23 28 31 29 29 29 27 27 31 33 34 36 36 26 28 31 33 32 29 28
15 19 18 16 25 25 29 29 23 15 20 16 15 13 14 16 15 18 18 11 14 15 18 18 23 26 29 31 32 34 34 33 34 35 37 39 43 42 42 40 31 31 31 32 33
21 20 20 18 19 23 24 20 20 16 17 18 18 15 12 17 16 17 15 17 20 12 17 20 26 27 30 31 31 32 30 30 32 35 38 41 44 41 37 33 34 35 36 38 39
21 20 21 18 20 21 20 18 18 17 13 14 17 18 16 16 14 15 19 18 19 21 24 26 26 28 33 32 33 31 29 29 30 27 29 33 34 35 36 37 38 39 40 42 43
Wind_Direction
295 292 291 287 285 280 277 276 275 269 259 255 257 259 256 256 248 202 206 315 154 121 142 148 146 209 191 172 188 235 168 135 137 89 104 89 63 57 79 101 49 55 110 114 120
300 297 292 288 285 281 278 276 275 270 260 255 256 259 258 260 228 203 230 310 108 137 147 146 206 187 188 189 26 153 144 122 110 97 100 93 80 96 88 86 77 83 94 107 113
303 300 296 291 285 280 278 274 274 268 260 254 254 253 261 258 213 241 189 213 128 153 172 170 200 222 188 173 110 115 128 118 115 99 90 69 115 64 146 91 102 102 104 115 115
304 302 299 294 287 282 277 273 271 266 261 257 254 253 249 236 274 307 83 148 152 172 186 193 215 206 175 92 246 112 108 86 107 96 91 121 118 21 49 59 92 108 112 115 120
304 302 300 294 289 285 279 273 268 263 259 256 255 257 240 200 289 26 79 32 175 170 199 222 228 248 174 204 78 118 115 78 84 49 348 167 218 85 58 70 94 110 117 121 125
303 301 299 295 290 287 283 276 267 260 257 256 256 252 238 265 6 65 91 87 183 179 204 202 259 257 234 271 257 98 59 46 70 17 80 130 162 139 81 84 93 110 118 126 126
303 301 299 295 292 288 286 280 269 261 258 258 259 259 253 287 25 88 97 130 179 234 248 284 270 254 256 328 277 10 41 42 16 102 115 146 157 110 94 94 99 110 119 125 128
301 299 299 295 292 291 288 280 273 266 262 261 267 268 298 313 265 61 139 157 249 242 266 255 257 250 244 344 85 29 349 13 48 101 54 77 129 135 112 109 115 115 117 118 124
302 298 295 293 292 292 288 279 272 270 266 270 276 301 304 326 305 109 105 193 170 239 242 249 251 256 257 258 312 318 342 23 25 86 80 349 165 91 121 129 123 123 125 123 119
303 297 292 287 287 289 285 276 285 279 281 277 264 284 312 314 320 296 276 261 258 243 228 218 221 239 236 288 296 325 289 335 12 42 58 129 94 97 124 138 121 123 126 127 125
304 298 292 285 282 285 291 301 312 313 286 287 303 297 329 317 307 282 300 290 269 271 274 206 265 283 278 318 333 277 288 308 350 359 349 323 347 94 109 123 129 118 119 127 132
304 299 293 286 279 276 282 303 313 293 288 292 288 292 293 298 310 286 295 284 295 288 297 276 292 270 308 313 289 280 285 290 350 1 339 332 297 39 124 123 129 116 121 125 121
299 296 293 285 279 279 299 275 295 291 289 299 292 292 295 287 291 299 290 279 278 286 276 285 311 306 305 291 290 291 289 287 293 333 345 317 323 299 140 112 132 125 123 125 129
296 292 290 284 295 283 293 310 300 310 290 285 284 292 296 283 284 299 289 282 286 280 281 286 307 297 306 299 299 295 317 308 304 295 289 307 299 342 156 132 75 105 141 141 136
298 289 283 291 280 291 314 301 304 307 293 287 287 327 305 292 310 301 304 285 279 287 290 298 302 306 304 298 314 299 322 316 305 302 298 297 301 313 32 300 257 192 319 155 140
300 291 283 299 298 255 289 295 296 290 290 299 302 294 285 285 296 317 305 294 306 294 289 291 314 301 304 309 308 303 302 306 312 309 297 305 300 302 297 333 40 356 343 285 280
298 288 283 274 298 267 292 290 283 277 319 292 289 298 279 291 296 297 299 298 297 301 293 295 300 319 313 301 309 312 311 301 299 301 305 308 300 305 354 22 44 48 49 41 35
296 287 289 279 262 282 283 281 279 283 284 320 296 287 276 297 294 292 295 290 298 297 299 298 293 305 327 316 310 311 313 309 302 308 316 338 319 343 4 27 20 349 353 351 342
295 304 292 281 268 268 272 259 266 260 299 299 290 277 276 288 297 290 284 316 318 311 301 303 304 314 309 311 306 314 309 306 302 294 295 302 19 25 51 1 358 350 338 332 331
311 293 283 283 266 269 265 262 266 255 296 292 274 275 275 281 289 290 290 305 303 299 296 306 296 309 318 316 304 298 299 305 300 300 294 290 299 305 242 286 314 328 325 328 328
320 303 309 298 268 262 260 260 253 276 278 275 265 280 270 286 281 285 299 309 301 310 303 296 299 308 307 302 303 307 306 304 294 291 290 292 326 4 42 352 319 323 322 321 320
304 292 320 296 262 260 255 251 260 278 267 262 267 273 276 281 283 284 297 301 319 313 300 314 301 291 294 318 312 304 293 293 290 292 291 286 283 8 339 331 322 321 321 314 311
308 295 306 281 258 256 253 243 270 271 266 268 269 279 284 288 284 291 311 317 326 313 308 315 306 299 300 300 308 303 305 297 293 288 282 283 288 26 333 318 329 319 316 314 310
304 300 306 269 257 264 260 254 272 263 265 269 274 283 290 286 295 298 304 314 319 322 318 314 310 303 294 297 303 303 298 302 296 289 286 280 278 276 302 314 311 310 310 311 311
307 296 292 282 252 265 264 261 256 260 269 271 283 285 282 284 293 292 299 318 320 323 320 319 307 304 299 298 299 298 299 297 292 289 287 285 283 288 293 300 313 315 317 313 308
293 289 275 286 270 261 275 271 251 260 265 268 279 284 288 284 291 307 299 308 309 321 324 316 303 305 302 302 300 300 301 299 296 293 290 288 288 296 302 303 304 304 306 304 303
309 289 266 275 262 256 276 271 264 266 264 281 272 289 287 292 304 321 318 316 324 311 309 308 309 306 301 305 304 302 304 301 303 303 305 298 304 307 308 305 302 302 303 302 302